Location: Moscow Pond
(43.6842°N, 73.2366°W)
Time: 00:30:27
(UTC+00:00)

Meteor 2-5 Rocket - Pass Details

Date: 08 November 2025
Orbit: 832 x 911 km, 81.2° (Epoch: 05 December)

Event Time Altitude Azimuth Distance (km) Brightness Sun altitude
Rises 10:41:51 0° 216° (SW) 3,528 6.7 -10.5°
Reaches altitude 10° 10:44:34 10° 225° (SW) 2,587 5.9 -10.1°
Maximum altitude 10:49:52 34° 289° (WNW) 1,458 4.4 -9.1°
Drops below altitude 10° 10:55:09 10° 353° (N) 2,570 6.0 -8.2°
Sets 10:57:51 0° 3° (N) 3,502 6.8 -7.7°
